�������l�o���
Date,Time,MP-1(��Sv/h),MP-2(��Sv/h),MP-3(��Sv/h),MP-4(��Sv/h),MP-5(��Sv/h),MP-6(��Sv/h),MP-7(��Sv/h),MP-8(��Sv/h),����,����(m/s),���J
2015/12/12,00:00,1.643,2.592,3.020,2.805,-,0.857,1.512,1.447,�k�k��,4.3,��
2015/12/12,00:10,1.643,2.587,3.022,2.808,-,0.857,1.512,1.447,�k�k��,3.9,��
2015/12/12,00:20,1.640,2.587,3.022,2.808,-,0.858,1.512,1.448,�k�k��,5.5,��
2015/12/12,00:30,1.642,2.582,3.022,2.808,-,0.855,1.510,1.448,�k�k��,5.4,��
2015/12/12,00:40,1.642,2.583,3.022,2.807,-,0.855,1.510,1.445,�k�k��,5.6,��
2015/12/12,00:50,1.642,2.582,3.022,2.812,-,0.857,1.510,1.447,�k�k��,5.4,��
2015/12/12,01:00,1.643,2.583,3.020,2.805,-,0.855,1.512,1.448,�k�k��,6.2,��
2015/12/12,01:10,1.640,2.585,3.020,2.805,-,0.855,1.512,1.447,�k�k��,5.8,��
2015/12/12,01:20,1.640,2.585,3.020,2.807,-,0.857,1.512,1.447,�k�k��,5.3,��
2015/12/12,01:30,1.643,2.585,3.020,2.805,-,0.855,1.510,1.448,�k�k��,4.1,��
2015/12/12,01:40,1.642,2.588,3.023,2.807,-,0.855,1.510,1.447,�k�k��,3.6,��
2015/12/12,01:50,1.642,2.587,3.022,2.803,-,0.857,1.512,1.447,�k�k��,3.2,��
2015/12/12,02:00,1.642,2.587,3.023,2.810,-,0.857,1.512,1.447,�k�k��,4.6,��
2015/12/12,02:10,1.643,2.590,3.023,2.810,-,0.855,1.510,1.447,�k�k��,4.9,��
2015/12/12,02:20,1.638,2.590,3.025,2.808,-,0.855,1.512,1.447,�k,6.2,��
2015/12/12,02:30,1.643,2.588,3.027,2.813,-,0.855,1.508,1.447,�k,7.5,��
2015/12/12,02:40,1.642,2.590,3.025,2.805,-,0.852,1.512,1.445,�k,8.0,��
2015/12/12,02:50,1.643,2.588,3.025,2.807,-,0.855,1.512,1.450,�k�k��,7.5,��
2015/12/12,03:00,1.642,2.588,3.022,2.810,-,0.853,1.512,1.450,�k�k��,7.8,��
2015/12/12,03:10,1.642,2.587,3.025,2.808,-,0.853,1.513,1.447,�k,7.2,��
2015/12/12,03:20,1.643,2.588,3.027,2.805,-,0.855,1.515,1.448,�k�k��,5.9,��
2015/12/12,03:30,1.642,2.590,3.027,2.805,-,0.855,1.510,1.448,�k�k��,5.7,��
2015/12/12,03:40,1.643,2.590,3.025,2.808,-,0.855,1.512,1.447,�k�k��,5.3,��
2015/12/12,03:50,1.642,2.590,3.023,2.810,-,0.852,1.508,1.450,�k�k��,5.3,��
2015/12/12,04:00,1.643,2.588,3.022,2.810,-,0.853,1.508,1.450,�k�k��,5.7,��
2015/12/12,04:10,1.643,2.592,3.025,2.810,-,0.855,1.512,1.445,�k�k��,6.3,��
2015/12/12,04:20,1.643,2.595,3.023,2.807,-,0.853,1.515,1.448,�k�k��,7.0,��
2015/12/12,04:30,1.643,2.593,3.023,2.808,-,0.853,1.513,1.447,�k�k��,9.2,��
2015/12/12,04:40,1.642,2.592,3.025,2.808,-,0.855,1.512,1.445,�k�k��,8.5,��
2015/12/12,04:50,1.643,2.593,3.022,2.810,-,0.855,1.510,1.447,�k�k��,7.7,��
2015/12/12,05:00,1.642,2.588,3.023,2.812,-,0.853,1.512,1.445,�k�k��,8.2,��
2015/12/12,05:10,1.643,2.590,3.027,2.808,-,0.853,1.512,1.448,�k,7.2,��
2015/12/12,05:20,1.645,2.590,3.025,2.812,-,0.852,1.512,1.450,�k,7.8,��
2015/12/12,05:30,1.642,2.593,3.027,2.807,-,0.852,1.513,1.448,�k,8.3,��
2015/12/12,05:40,1.640,2.590,3.023,2.808,-,0.853,1.508,1.447,�k,8.9,��
2015/12/12,05:50,1.640,2.592,3.027,2.812,-,0.853,1.512,1.447,�k�k��,8.5,��
2015/12/12,06:00,1.642,2.593,3.023,2.812,-,0.853,1.510,1.448,�k�k��,8.2,��
2015/12/12,06:10,1.642,2.592,3.025,2.808,-,0.850,1.512,1.445,�k�k��,8.6,��
2015/12/12,06:20,1.643,2.590,3.022,2.807,-,0.853,1.510,1.448,�k�k��,8.1,��
2015/12/12,06:30,1.640,2.588,3.022,2.805,-,0.853,1.512,1.447,�k�k��,7.3,��
2015/12/12,06:40,1.640,2.593,3.022,2.807,-,0.852,1.513,1.447,�k�k��,6.9,��
2015/12/12,06:50,1.642,2.593,3.022,2.807,-,0.852,1.513,1.448,�k�k��,6.9,��
2015/12/12,07:00,1.642,2.588,3.025,2.810,-,0.850,1.512,1.447,�k�k��,7.1,��
2015/12/12,07:10,1.642,2.592,3.025,2.810,-,0.852,1.513,1.447,�k�k��,6.6,��
2015/12/12,07:20,1.640,2.590,3.022,2.808,-,0.847,1.512,1.445,�k�k��,7.3,��
2015/12/12,07:30,1.642,2.592,3.022,2.808,-,0.847,1.510,1.448,�k�k��,7.0,��
2015/12/12,07:40,1.642,2.592,3.022,2.810,-,0.850,1.510,1.447,�k��,6.3,��
2015/12/12,07:50,1.643,2.595,3.022,2.808,-,0.850,1.513,1.448,�k��,6.0,��
2015/12/12,08:00,1.643,2.597,3.027,2.812,-,0.852,1.510,1.448,�k�k��,6.3,��
2015/12/12,08:10,1.643,2.600,3.027,2.812,-,0.850,1.512,1.450,�k�k��,5.6,��
2015/12/12,08:20,1.642,2.597,3.028,2.815,-,0.852,1.512,1.447,�k�k��,5.1,��
2015/12/12,08:30,1.647,2.598,3.030,2.810,-,0.850,1.515,1.445,�k�k��,5.7,��
2015/12/12,08:40,1.642,2.598,3.030,2.812,-,0.850,1.513,1.448,�k�k��,5.3,��
2015/12/12,08:50,1.643,2.595,3.030,2.815,-,0.850,1.513,1.448,�k�k��,4.3,��
2015/12/12,09:00,1.642,2.597,3.035,2.820,-,0.848,1.512,1.450,�k�k��,4.4,��
2015/12/12,09:10,1.643,2.598,3.032,2.820,-,0.848,1.512,1.450,�k�k��,5.0,��
2015/12/12,09:20,1.645,2.602,3.037,2.822,-,0.852,1.512,1.450,�k�k��,4.3,��
2015/12/12,09:30,1.643,2.603,3.037,2.820,-,0.850,1.513,1.450,�k�k��,4.4,��
2015/12/12,09:40,1.645,2.605,3.040,2.817,-,0.855,1.515,1.448,�k�k��,5.4,��
2015/12/12,09:50,1.647,2.608,3.040,2.822,-,0.855,1.515,1.450,�k�k��,5.3,��
2015/12/12,10:00,1.643,2.608,3.040,2.822,-,0.852,1.515,1.448,�k,4.7,��
2015/12/12,10:10,1.643,2.608,3.043,2.820,-,0.853,1.517,1.450,�k,5.6,��
2015/12/12,10:20,1.643,2.608,3.047,2.823,-,0.852,1.515,1.448,�k,5.4,��
2015/12/12,10:30,1.647,2.610,3.047,2.827,-,0.853,1.517,1.448,�k,5.4,��
2015/12/12,10:40,1.647,2.610,3.050,2.828,-,0.852,1.517,1.452,�k,4.9,��
2015/12/12,10:50,1.645,2.613,3.052,2.828,-,0.852,1.517,1.448,�k,6.0,��
2015/12/12,11:00,1.643,2.612,3.050,2.832,-,0.855,1.518,1.450,�k,5.5,��
2015/12/12,11:10,1.647,2.615,3.050,2.830,-,0.853,1.518,1.453,�k,5.2,��
2015/12/12,11:20,1.647,2.615,3.048,2.827,-,0.853,1.515,1.453,�k�k��,5.2,��
2015/12/12,11:30,1.647,2.613,3.053,2.828,-,0.853,1.517,1.452,�k�k��,5.7,��
2015/12/12,11:40,1.645,2.613,3.055,2.830,-,0.853,1.520,1.453,�k�k��,5.5,��
2015/12/12,11:50,1.647,2.617,3.055,2.832,-,0.857,1.518,1.453,�k�k��,5.7,��
2015/12/12,12:00,1.647,2.620,3.058,2.833,-,0.857,1.520,1.453,�k�k��,6.0,��
2015/12/12,12:10,1.648,2.620,3.058,2.835,-,0.857,1.520,1.452,�k�k��,5.9,��
2015/12/12,12:20,1.648,2.623,3.060,2.832,-,0.857,1.518,1.452,�k�k��,5.5,��
2015/12/12,12:30,1.648,2.623,3.063,2.835,-,0.855,1.520,1.453,�k�k��,5.7,��
2015/12/12,12:40,1.648,2.623,3.058,2.832,-,0.858,1.520,1.453,�k�k��,5.5,��
2015/12/12,12:50,1.648,2.618,3.060,2.835,-,0.858,1.520,1.452,�k�k��,5.1,��
2015/12/12,13:00,1.648,2.622,3.062,2.832,-,0.857,1.520,1.453,�k�k��,5.0,��
2015/12/12,13:10,1.652,2.623,3.063,2.837,-,0.857,1.523,1.453,�k�k��,4.9,��
2015/12/12,13:20,1.650,2.625,3.063,2.838,-,0.858,1.518,1.455,�k�k��,4.1,��
2015/12/12,13:30,1.648,2.625,3.065,2.835,-,0.858,1.522,1.453,�k�k��,3.5,��
2015/12/12,13:40,1.647,2.623,3.065,2.833,-,0.860,1.523,1.453,�k�k��,3.9,��
2015/12/12,13:50,1.650,2.625,3.067,2.838,-,0.857,1.522,1.453,�k��,2.6,��
2015/12/12,14:00,1.648,2.625,3.070,2.838,-,0.855,1.523,1.455,�k��,2.9,��
2015/12/12,14:10,1.648,2.627,3.072,2.842,-,0.858,1.522,1.455,�k��,2.8,��
2015/12/12,14:20,1.652,2.623,3.072,2.842,-,0.857,1.522,1.452,�k��,3.0,��
2015/12/12,14:30,1.650,2.628,3.070,2.840,-,0.857,1.523,1.450,�k��,2.6,��
2015/12/12,14:40,1.650,2.627,3.070,2.840,-,0.858,1.523,1.452,�k��,2.5,��
2015/12/12,14:50,1.652,2.628,3.072,2.838,-,0.858,1.523,1.455,�k��,1.7,��
2015/12/12,15:00,1.650,2.630,3.070,2.840,-,0.857,1.523,1.455,���k��,1.7,��
2015/12/12,15:10,1.650,2.627,3.072,2.842,-,0.858,1.522,1.452,���k��,1.5,��
2015/12/12,15:20,1.652,2.630,3.068,2.842,-,0.858,1.522,1.455,�k��,1.2,��
2015/12/12,15:30,1.653,2.627,3.067,2.840,-,0.860,1.523,1.455,�k��,1.7,��
2015/12/12,15:40,1.652,2.628,3.072,2.840,-,0.862,1.525,1.455,���k��,1.4,��
2015/12/12,15:50,1.652,2.625,3.068,2.840,-,0.860,1.523,1.455,�k�k��,1.2,��
2015/12/12,16:00,1.652,2.627,3.068,2.837,-,0.860,1.523,1.455,�k,0.6,��
2015/12/12,16:10,1.650,2.623,3.067,2.840,-,0.860,1.523,1.455,-,CALM,��
2015/12/12,16:20,1.650,2.620,3.063,2.838,-,0.862,1.522,1.452,-,CALM,��
2015/12/12,16:30,1.648,2.622,3.070,2.835,-,0.858,1.522,1.453,-,CALM,��
2015/12/12,16:40,1.650,2.622,3.068,2.835,-,0.857,1.522,1.455,-,CALM,��
2015/12/12,16:50,1.648,2.625,3.067,2.833,-,0.855,1.522,1.455,���k��,0.6,��
2015/12/12,17:00,1.652,2.623,3.063,2.837,-,0.857,1.520,1.457,-,CALM,��
2015/12/12,17:10,1.652,2.620,3.062,2.835,-,0.858,1.522,1.452,-,CALM,��
2015/12/12,17:20,1.648,2.623,3.062,2.835,-,0.857,1.523,1.453,��,0.6,��
2015/12/12,17:30,1.650,2.625,3.063,2.837,-,0.853,1.522,1.452,��,1.5,��
2015/12/12,17:40,1.648,2.625,3.065,2.835,-,0.853,1.522,1.452,��,1.7,��
2015/12/12,17:50,1.648,2.623,3.067,2.835,-,0.855,1.523,1.453,��,1.9,��
2015/12/12,18:00,1.648,2.622,3.060,2.833,-,0.855,1.520,1.455,��,0.9,��
2015/12/12,18:10,1.650,2.623,3.063,2.838,-,0.855,1.520,1.452,��,0.9,��
2015/12/12,18:20,1.650,2.623,3.063,2.833,-,0.857,1.520,1.450,-,CALM,��
2015/12/12,18:30,1.650,2.623,3.062,2.835,-,0.857,1.520,1.450,���쐼,0.6,��
2015/12/12,18:40,1.647,2.622,3.063,2.835,-,0.853,1.520,1.452,��,1.2,��
2015/12/12,18:50,1.645,2.620,3.067,2.835,-,0.855,1.522,1.448,-,CALM,��
2015/12/12,19:00,1.647,2.627,3.063,2.833,-,0.857,1.518,1.453,��,0.6,��
2015/12/12,19:10,1.645,2.620,3.067,2.835,-,0.857,1.518,1.452,��,0.6,��
2015/12/12,19:20,1.650,2.623,3.068,2.833,-,0.855,1.518,1.452,���쐼,0.6,��
2015/12/12,19:30,1.648,2.620,3.065,2.835,-,0.857,1.520,1.453,-,CALM,��
2015/12/12,19:40,1.647,2.625,3.065,2.835,-,0.857,1.518,1.452,��쐼,0.8,��
2015/12/12,19:50,1.650,2.625,3.063,2.833,-,0.857,1.520,1.452,�쐼,1.4,��
2015/12/12,20:00,1.648,2.623,3.062,2.835,-,0.855,1.520,1.453,�쐼,2.0,��
2015/12/12,20:10,1.650,2.622,3.062,2.835,-,0.860,1.518,1.453,�쐼,2.0,��
2015/12/12,20:20,1.650,2.623,3.065,2.833,-,0.857,1.520,1.452,�쐼,2.6,��
2015/12/12,20:30,1.648,2.623,3.062,2.832,-,0.855,1.518,1.453,��쐼,2.8,��
2015/12/12,20:40,1.650,2.623,3.060,2.832,-,0.853,1.520,1.455,��쐼,2.3,��
2015/12/12,20:50,1.648,2.620,3.063,2.833,-,0.858,1.520,1.452,��쐼,3.1,��
2015/12/12,21:00,1.648,2.623,3.063,2.833,-,0.857,1.518,1.453,��쐼,3.7,��
2015/12/12,21:10,1.648,2.623,3.063,2.832,-,0.855,1.517,1.455,��쐼,3.0,��
2015/12/12,21:20,1.648,2.622,3.063,2.832,-,0.855,1.517,1.455,��쐼,3.4,��
2015/12/12,21:30,1.648,2.625,3.067,2.833,-,0.857,1.518,1.452,��쐼,3.5,��
2015/12/12,21:40,1.650,2.625,3.062,2.832,-,0.858,1.518,1.452,��쐼,4.2,��
2015/12/12,21:50,1.648,2.622,3.060,2.832,-,0.857,1.517,1.453,��쐼,4.4,��
2015/12/12,22:00,1.648,2.620,3.060,2.833,-,0.860,1.517,1.455,��쐼,4.5,��
2015/12/12,22:10,1.650,2.622,3.062,2.835,-,0.857,1.520,1.455,��쐼,5.1,��
2015/12/12,22:20,1.650,2.620,3.065,2.832,-,0.858,1.518,1.452,��쐼,5.4,��
2015/12/12,22:30,1.648,2.622,3.062,2.830,-,0.858,1.518,1.453,��쐼,5.4,��
2015/12/12,22:40,1.647,2.618,3.062,2.832,-,0.860,1.517,1.453,��쐼,5.2,��
2015/12/12,22:50,1.648,2.622,3.063,2.835,-,0.857,1.520,1.453,��쐼,5.6,��
2015/12/12,23:00,1.647,2.622,3.065,2.833,-,0.860,1.518,1.457,��쐼,5.4,��
2015/12/12,23:10,1.647,2.622,3.065,2.835,-,0.853,1.518,1.452,��쐼,5.2,��
2015/12/12,23:20,1.647,2.622,3.060,2.833,-,0.858,1.513,1.452,��쐼,5.2,��
2015/12/12,23:30,1.647,2.623,3.063,2.833,-,0.857,1.520,1.452,��쐼,5.9,��
2015/12/12,23:40,1.648,2.622,3.060,2.832,-,0.858,1.518,1.452,��쐼,5.8,��
2015/12/12,23:50,1.648,2.620,3.058,2.833,-,0.857,1.518,1.453,��쐼,5.4,��
